When you browse on this site, cookies collect data to enhance your experience and personalize the content and advertising you see.
Visit our Privacy Policy to learn more. By continuing to use the site, you agree to this use of cookies and data.
  • In Belgien
  • Länderverzeichnis
  • Für 7 Tage
  • Wassertemperatur
  • Satellitenkarten
  • Wetterkarte
  • Widgets
  • user-avatar
    Anmelden

    Stündliche Wetter Genval

    Heute, 19 Januar, Samstag

    Zeit Temperatur Niederschläge Wind Luftdruck Luftfeuchtigkeit
    00:00 -2°C° 0 mm 2 m/S 754 mmHg 80%
    01:00 -2°C° 0 mm 3 m/S 754 mmHg 81%
    02:00 -2°C° 0 mm 3 m/S 753 mmHg 82%
    03:00 -2°C° 0 mm 3 m/S 753 mmHg 83%
    04:00 -2°C° 0 mm 3 m/S 753 mmHg 83%
    05:00 -2°C° 0 mm 3 m/S 753 mmHg 82%
    06:00 -2°C° 0 mm 3 m/S 752 mmHg 81%
    07:00 -3°C° 0 mm 4 m/S 752 mmHg 78%
    08:00 -3°C° 0 mm 4 m/S 752 mmHg 75%
    09:00 -2°C° 0 mm 4 m/S 752 mmHg 71%
    10:00 -1°C° 0 mm 4 m/S 752 mmHg 65%
    11:00 0°C° 0 mm 4 m/S 752 mmHg 59%
    12:00 +1°C° 0 mm 4 m/S 751 mmHg 52%
    13:00 +1°C° 0 mm 4 m/S 751 mmHg 53%
    14:00 +2°C° 0 mm 3 m/S 751 mmHg 54%
    15:00 +2°C° 0 mm 3 m/S 750 mmHg 55%
    16:00 +1°C° 0 mm 3 m/S 750 mmHg 59%
    17:00 -1°C° 0 mm 3 m/S 750 mmHg 62%
    18:00 -2°C° 0 mm 3 m/S 750 mmHg 66%
    19:00 -2°C° 0 mm 3 m/S 750 mmHg 68%
    20:00 -2°C° 0 mm 3 m/S 750 mmHg 69%
    21:00 -4°C° 0 mm 3 m/S 750 mmHg 71%
    22:00 -4°C° 0 mm 3 m/S 750 mmHg 71%
    23:00 -4°C° 0 mm 3 m/S 750 mmHg 71%

    Morgen, 20 Januar, Sonntag

    Zeit Temperatur Niederschläge Wind Luftdruck Luftfeuchtigkeit
    00:00 -3°C° 0 mm 2 m/S 750 mmHg 71%
    01:00 -3°C° 0 mm 2 m/S 750 mmHg 71%
    02:00 -3°C° 0 mm 2 m/S 750 mmHg 70%
    03:00 -3°C° 0 mm 2 m/S 750 mmHg 69%
    04:00 -3°C° 0 mm 2 m/S 751 mmHg 69%
    05:00 -3°C° 0 mm 2 m/S 751 mmHg 68%
    06:00 -4°C° 0 mm 2 m/S 751 mmHg 68%
    07:00 -3°C° 0 mm 2 m/S 751 mmHg 66%
    08:00 -3°C° 0 mm 2 m/S 752 mmHg 64%
    09:00 -3°C° 0 mm 2 m/S 752 mmHg 62%
    10:00 -2°C° 0 mm 2 m/S 752 mmHg 57%
    11:00 -1°C° 0 mm 2 m/S 753 mmHg 53%
    12:00 0°C° 0 mm 3 m/S 753 mmHg 48%
    13:00 0°C° 0 mm 3 m/S 753 mmHg 50%
    14:00 0°C° 0 mm 3 m/S 753 mmHg 52%
    15:00 0°C° 0 mm 3 m/S 753 mmHg 54%
    16:00 -1°C° 0 mm 3 m/S 754 mmHg 58%
    17:00 -2°C° 0 mm 3 m/S 755 mmHg 62%
    18:00 -4°C° 0 mm 3 m/S 755 mmHg 66%
    19:00 -3°C° 0 mm 2 m/S 756 mmHg 67%
    20:00 -3°C° 0 mm 2 m/S 756 mmHg 67%
    21:00 -3°C° 0 mm 2 m/S 757 mmHg 67%
    22:00 -3°C° 0 mm 2 m/S 757 mmHg 66%
    23:00 -3°C° 0 mm 2 m/S 757 mmHg 65%

    übermorgen, 21 Januar, Montag

    Zeit Temperatur Niederschläge Wind Luftdruck Luftfeuchtigkeit
    00:00 -1°C° 0 mm 1 m/S 758 mmHg 64%
    01:00 -1°C° 0 mm 1 m/S 758 mmHg 63%
    02:00 -1°C° 0 mm 1 m/S 758 mmHg 63%
    03:00 -1°C° 0 mm 1 m/S 758 mmHg 62%
    04:00 -2°C° 0 mm 1 m/S 758 mmHg 61%
    05:00 -2°C° 0 mm 1 m/S 758 mmHg 61%
    06:00 -2°C° 0 mm 1 m/S 758 mmHg 60%
    07:00 -2°C° 0 mm 0 m/S 759 mmHg 57%
    08:00 -2°C° 0 mm 0 m/S 759 mmHg 55%
    09:00 -1°C° 0 mm 0 m/S 759 mmHg 52%
    10:00 0°C° 0 mm 0 m/S 759 mmHg 49%
    11:00 +1°C° 0 mm 0 m/S 758 mmHg 45%
    12:00 +2°C° 0 mm 0 m/S 758 mmHg 41%
    13:00 +2°C° 0 mm 0 m/S 757 mmHg 43%
    14:00 +1°C° 0 mm 0 m/S 757 mmHg 45%
    15:00 +1°C° 0 mm 0 m/S 757 mmHg 48%
    16:00 +1°C° 0 mm 1 m/S 756 mmHg 49%
    17:00 +1°C° 0 mm 1 m/S 756 mmHg 51%
    18:00 -2°C° 0 mm 2 m/S 755 mmHg 53%
    19:00 -3°C° 0 mm 2 m/S 755 mmHg 53%
    20:00 -3°C° 0 mm 2 m/S 754 mmHg 53%
    21:00 -4°C° 0 mm 3 m/S 754 mmHg 54%
    22:00 -4°C° 0 mm 3 m/S 753 mmHg 54%
    23:00 -4°C° 0 mm 4 m/S 753 mmHg 53%

    22 Januar, Dienstag

    Zeit Temperatur Niederschläge Wind Luftdruck Luftfeuchtigkeit
    00:00 -5°C° 0 mm 5 m/S 752 mmHg 53%
    01:00 -4°C° 0 mm 5 m/S 751 mmHg 54%
    02:00 -4°C° 0 mm 6 m/S 750 mmHg 55%
    03:00 -4°C° 0 mm 6 m/S 749 mmHg 56%
    04:00 -4°C° 0 mm 7 m/S 747 mmHg 54%
    05:00 -4°C° 0 mm 7 m/S 746 mmHg 53%
    06:00 -3°C° 0 mm 7 m/S 745 mmHg 51%
    07:00 -4°C° 0.2 mm 7 m/S 745 mmHg 58%
    08:00 -5°C° 0.2 mm 8 m/S 744 mmHg 64%
    09:00 -5°C° 0.2 mm 8 m/S 743 mmHg 70%
    10:00 -4°C° 0.4 mm 7 m/S 743 mmHg 75%
    11:00 -4°C° 0.4 mm 6 m/S 743 mmHg 80%
    12:00 -3°C° 0.4 mm 6 m/S 743 mmHg 85%
    13:00 -2°C° 0.4 mm 5 m/S 742 mmHg 87%
    14:00 -2°C° 0.4 mm 4 m/S 742 mmHg 90%
    15:00 -1°C° 0.4 mm 3 m/S 741 mmHg 92%
    16:00 -2°C° 0.4 mm 2 m/S 741 mmHg 94%
    17:00 -2°C° 0.4 mm 2 m/S 741 mmHg 95%
    18:00 0°C° 0.4 mm 1 m/S 741 mmHg 96%
    19:00 0°C° 0.3 mm 1 m/S 741 mmHg 96%
    20:00 0°C° 0.3 mm 1 m/S 741 mmHg 97%
    21:00 0°C° 0.3 mm 1 m/S 741 mmHg 97%
    22:00 0°C° 0.2 mm 1 m/S 741 mmHg 96%
    23:00 0°C° 0.2 mm 1 m/S 741 mmHg 96%

    23 Januar, Mittwoch

    Zeit Temperatur Niederschläge Wind Luftdruck Luftfeuchtigkeit
    00:00 0°C° 0.2 mm 1 m/S 741 mmHg 96%
    01:00 0°C° 0.1 mm 1 m/S 741 mmHg 96%
    02:00 0°C° 0.1 mm 1 m/S 741 mmHg 96%
    03:00 0°C° 0.1 mm 1 m/S 741 mmHg 96%
    04:00 0°C° 0.1 mm 1 m/S 741 mmHg 96%
    05:00 0°C° 0.1 mm 1 m/S 741 mmHg 96%
    06:00 0°C° 0.1 mm 1 m/S 742 mmHg 96%
    07:00 0°C° 0.1 mm 1 m/S 742 mmHg 96%
    08:00 0°C° 0.1 mm 1 m/S 743 mmHg 96%
    09:00 -1°C° 0.1 mm 2 m/S 743 mmHg 96%
    10:00 +1°C° 0 mm 1 m/S 744 mmHg 96%
    11:00 +1°C° 0 mm 1 m/S 744 mmHg 95%
    12:00 +2°C° 0 mm 1 m/S 744 mmHg 95%
    13:00 +1°C° 0 mm 1 m/S 744 mmHg 95%
    14:00 +1°C° 0 mm 1 m/S 745 mmHg 95%
    15:00 +1°C° 0 mm 1 m/S 745 mmHg 95%
    16:00 +1°C° 0 mm 1 m/S 745 mmHg 95%
    17:00 0°C° 0 mm 1 m/S 746 mmHg 95%
    18:00 0°C° 0 mm 1 m/S 746 mmHg 95%
    19:00 -1°C° 0 mm 1 m/S 747 mmHg 95%
    20:00 -1°C° 0 mm 1 m/S 747 mmHg 95%
    21:00 -1°C° 0 mm 1 m/S 747 mmHg 95%
    22:00 -1°C° 0 mm 1 m/S 747 mmHg 95%
    23:00 -1°C° 0 mm 1 m/S 747 mmHg 94%

    24 Januar, Donnerstag

    Zeit Temperatur Niederschläge Wind Luftdruck Luftfeuchtigkeit
    00:00 -1°C° 0 mm 1 m/S 747 mmHg 94%
    01:00 -1°C° 0 mm 1 m/S 747 mmHg 93%
    02:00 -3°C° 0 mm 2 m/S 747 mmHg 92%
    03:00 -4°C° 0 mm 2 m/S 747 mmHg 91%
    04:00 -4°C° 0 mm 2 m/S 748 mmHg 91%
    05:00 -4°C° 0 mm 2 m/S 748 mmHg 90%
    06:00 -4°C° 0 mm 2 m/S 748 mmHg 90%
    07:00 -3°C° 0 mm 2 m/S 748 mmHg 90%
    08:00 -3°C° 0 mm 2 m/S 749 mmHg 91%
    09:00 -2°C° 0 mm 2 m/S 749 mmHg 91%
    10:00 0°C° 0 mm 1 m/S 749 mmHg 92%
    11:00 +1°C° 0 mm 1 m/S 749 mmHg 92%
    12:00 +2°C° 0 mm 1 m/S 749 mmHg 92%
    13:00 +2°C° 0 mm 1 m/S 750 mmHg 93%
    14:00 +2°C° 0 mm 1 m/S 750 mmHg 94%
    15:00 +2°C° 0 mm 1 m/S 750 mmHg 95%
    16:00 +1°C° 0 mm 1 m/S 751 mmHg 95%
    17:00 0°C° 0 mm 1 m/S 752 mmHg 94%
    18:00 -3°C° 0 mm 2 m/S 752 mmHg 94%
    19:00 -3°C° 0 mm 2 m/S 753 mmHg 95%
    20:00 -4°C° 0 mm 2 m/S 754 mmHg 95%
    21:00 -4°C° 0 mm 2 m/S 755 mmHg 95%
    22:00 -4°C° 0 mm 2 m/S 755 mmHg 94%
    23:00 -5°C° 0 mm 2 m/S 755 mmHg 93%
    Mehr zeigen